Weather observations for the past three days for
Brookhaven-Lincoln County Airport
Imperial (Metric)
Date Time (cdt) Wind (mph) Vis. (mi.) Weather Sky Cond. Temperature (ºF) Relative Humidity Wind Chill (°F) Heat Index (°F) Pressure Precipitation (in)
Air Dwpt 6 hour altimeter (in) sea level (mb) 1 hr 3 hr 6 hr
Max. Min.
04 02:15 Calm 10.00 Fair CLR 0 0 0% 30.07 0.0
04 01:55 Calm 9.00 Fair CLR 0 0 0% 30.07 0.0
04 01:35 Calm 9.00 Fair CLR 0 0 0% 30.08 0.0
04 01:15 Calm 10.00 Fair CLR 0 0 0% 30.08 0.0
04 00:55 Calm 9.00 A Few Clouds FEW055 0 0 0% 30.09 0.0
04 00:35 Calm 10.00 A Few Clouds FEW055 0 0 0% 30.09 0.0
04 00:15 Calm 9.00 A Few Clouds FEW055 0 0 0% 30.1 0.0
03 23:55 Calm 10.00 Fair CLR 0 0 0% 30.1 0.0
03 23:35 Calm 10.00 Fair CLR 0 0 0% 30.1 0.0
03 23:15 Calm 10.00 Fair CLR 0 0 0% 30.1 0.0
03 22:55 Calm 10.00 Fair CLR 0 0 0% 30.1 0.0
03 22:35 Calm 10.00 Fair CLR 0 0 0% 30.11 0.0
03 22:15 Calm 9.00 Fair CLR 0 0 0% 30.11 0.0
03 21:55 Calm 10.00 Fair CLR 0 0 0% 30.11 0.0
03 21:35 Calm 10.00 Fair CLR 0 0 0% 30.11 0.0
03 21:15 Calm 10.00 Fair CLR 0 0 0% 30.1 0.0
03 20:55 Calm 10.00 Fair CLR 0 0 0% 30.09 0.0
03 20:35 Calm 10.00 Fair CLR 0 0 0% 30.09 0.0
03 20:15 Calm 9.00 Fair CLR 0 0 0% 30.08 0.0
03 19:55 Calm 9.00 Fair CLR 0 0 0% 30.08 0.0
03 19:35 Calm 9.00 Fair CLR 0 0 0% 30.08 0.0
03 19:15 Calm 8.00 Fair CLR 0 0 0% 30.07 0.0
03 18:55 NW 3 9.00 Fair CLR 0 0 0% 30.07 0.0
03 18:35 NW 5 9.00 Fair CLR 0 0 0% 30.08 0.0
03 18:15 W 3 10.00 Fair CLR 0 0 0% 30.08 0.0
03 17:55 Vrbl 3 10.00 Fair CLR 0 0 0% 30.08 0.0
03 17:35 NW 5 9.00 Fair CLR 0 0 0% 30.09 0.0
03 17:15 Vrbl 6 9.00 A Few Clouds FEW070 0 0 0% 30.08 0.0
03 16:55 Vrbl 7 9.00 Fair CLR 0 0 0% 30.09 0.0
03 16:35 Vrbl 5 9.00 Fair CLR 0 0 0% 30.1 0.0
03 16:15 NW 8 9.00 Fair CLR 0 0 0% 30.1 0.0
03 15:55 W 6 9.00 Fair CLR 0 0 0% 30.11 0.0
03 15:35 Calm 9.00 Fair CLR 0 0 0% 30.12 0.0
03 15:15 NW 6 9.00 Fair CLR 0 0 0% 30.13 0.0
03 14:55 Calm 9.00 Fair CLR 0 0 0% 30.14 0.0
03 14:35 S 6 9.00 Fair CLR 0 0 0% 30.15 0.0
03 13:55 W 7 9.00 Fair CLR 0 0 0% 30.16 0.0
03 13:35 Vrbl 5 G 13 9.00 Fair CLR 0 0 0% 30.17 0.0
03 13:15 Vrbl 5 10.00 Fair CLR 0 0 0% 30.18 0.0
03 12:55 W 9 9.00 Fair CLR 0 0 0% 30.18 0.0
03 12:35 W 8 9.00 Fair CLR 0 0 0% 30.2 0.0
03 12:15 SW 8 9.00 Fair CLR 0 0 0% 30.21 0.0
03 11:55 N 6 9.00 Fair CLR 0 0 0% 30.21 0.0
03 11:35 Vrbl 3 9.00 Fair CLR 0 0 0% 30.22 0.0
03 11:15 Calm 9.00 Fair CLR 0 0 0% 30.22 0.0
03 10:55 Vrbl 6 9.00 Fair CLR 0 0 0% 30.23 0.0
03 10:35 SW 6 9.00 Fair CLR 0 0 0% 30.23 0.0
03 10:15 SW 5 9.00 Fair CLR 0 0 0% 30.23 0.0
03 09:55 SW 6 9.00 Fair CLR 0 0 0% 30.23 0.0
03 09:35 SW 5 9.00 Fair CLR 0 0 0% 30.22 0.0
03 09:15 SW 6 10.00 Fair CLR 0 0 0% 30.22 0.0
03 08:55 SW 5 9.00 Fair CLR 0 0 0% 30.21 0.0
03 08:35 Calm 9.00 Fair CLR 0 0 0% 30.21 0.0
03 08:15 Calm 9.00 Fair CLR 0 0 0% 30.21 0.0
03 07:55 Calm 9.00 Fair CLR 0 0 0% 30.2 0.0
03 07:35 Calm 9.00 Fair CLR 0 0 0% 30.19 0.0
03 07:15 Calm 8.00 Fair CLR 0 0 0% 30.19 0.0
03 06:55 Calm 7.00 Fair CLR 0 0 0% 30.18 0.0
03 06:35 Calm 8.00 Fair CLR 0 0 0% 30.17 0.0
03 06:15 Calm 8.00 Fair CLR 0 0 0% 30.16 0.0
03 05:55 Calm 9.00 Fair CLR 0 0 0% 30.17 0.0
03 05:35 SE 3 10.00 Fair CLR 0 0 0% 30.16 0.0
03 05:15 Calm 8.00 Fair CLR 0 0 0% 30.16 0.0
03 04:55 Calm 9.00 Fair CLR 0 0 0% 30.16 0.0
03 04:35 Calm 7.00 Fair CLR 0 0 0% 30.15 0.0
03 04:15 Calm 8.00 Fair CLR 0 0 0% 30.15 0.0
03 03:55 Calm 6.00 Fair CLR 0 0 0% 30.15 0.0
03 03:35 Calm 9.00 Fair CLR 0 0 0% 30.15 0.0
03 03:15 Calm 9.00 Fair CLR 0 0 0% 30.14 0.0
03 02:55 Calm 8.00 Fair CLR 0 0 0% 30.13 0.0
03 02:35 Calm 8.00 Fair CLR 0 0 0% 30.13 0.0
03 02:15 Calm 9.00 Fair CLR 0 0 0% 30.13 0.0
03 01:55 Calm 10.00 Fair CLR 0 0 0% 30.13 0.0
03 01:35 Calm 7.00 Fair CLR 0 0 0% 30.13 0.0
03 01:15 Calm 9.00 Fair CLR 0 0 0% 30.13 0.0
03 00:55 Calm 9.00 Fair CLR 0 0 0% 30.14 0.0
03 00:35 Calm 9.00 Fair CLR 0 0 0% 30.14 0.0
03 00:15 Calm 9.00 Fair CLR 0 0 0% 30.14 0.0
02 23:55 Calm 10.00 Fair CLR 0 0 0% 30.14 0.0
02 23:35 Calm 10.00 Fair CLR 0 0 0% 30.14 0.0
02 23:15 Calm 10.00 Fair CLR 0 0 0% 30.14 0.0
02 22:55 Calm 10.00 Fair CLR 0 0 0% 30.14 0.0
02 22:35 Calm 10.00 Fair CLR 0 0 0% 30.13 0.0
02 22:15 Calm 10.00 Fair CLR 0 0 0% 30.13 0.0
02 21:55 Calm 10.00 Fair CLR 0 0 0% 30.13 0.0
02 21:35 Calm 10.00 Fair CLR 0 0 0% 30.12 0.0
02 21:15 Calm 10.00 Fair CLR 0 0 0% 30.11 0.0
02 20:55 Calm 10.00 Fair CLR 0 0 0% 30.11 0.0
02 20:35 Calm 10.00 Fair CLR 0 0 0% 30.1 0.0
02 20:15 Calm 10.00 Fair CLR 0 0 0% 30.1 0.0
02 19:55 Calm 10.00 Fair CLR 0 0 0% 30.09 0.0
02 19:35 Calm 10.00 Fair CLR 0 0 0% 30.09 0.0
02 19:15 NW 5 8.00 Fair CLR 0 0 0% 30.08 0.0
02 18:55 Vrbl 7 G 13 9.00 Fair CLR 0 0 0% 30.08 0.0
02 18:35 NW 7 G 14 10.00 Fair CLR 0 0 0% 30.07 0.0
02 18:15 NW 9 G 16 9.00 Fair CLR 0 0 0% 30.06 0.0
02 17:55 N 9 9.00 Fair CLR 0 0 0% 30.06 0.0
02 17:35 NW 10 9.00 Fair CLR 0 0 0% 30.05 0.0
02 17:15 N 9 10.00 Fair CLR 0 0 0% 30.05 0.0
02 16:55 NW 12 G 17 9.00 Fair CLR 0 0 0% 30.04 0.0
02 16:35 N 10 G 17 10.00 Fair CLR 0 0 0% 30.04 0.0
02 16:15 N 9 G 15 10.00 Fair CLR 0 0 0% 30.05 0.0
02 15:55 N 9 G 20 10.00 Fair CLR 0 0 0% 30.05 0.0
02 15:35 NW 10 G 16 9.00 Fair CLR 0 0 0% 30.06 0.0
02 15:15 N 12 G 18 9.00 Fair CLR 0 0 0% 30.06 0.0
02 14:55 NW 9 G 17 10.00 Fair CLR 0 0 0% 30.07 0.0
02 14:35 NW 10 G 16 9.00 Fair CLR 0 0 0% 30.07 0.0
02 14:15 N 9 G 20 10.00 Fair CLR 0 0 0% 30.07 0.0
02 13:55 NE 15 G 21 9.00 Fair CLR 0 0 0% 30.07 0.0
02 13:35 N 14 G 22 9.00 Fair CLR 0 0 0% 30.08 0.0
02 13:15 N 12 G 20 9.00 Fair CLR 0 0 0% 30.08 0.0
02 12:55 N 15 G 26 9.00 Fair CLR 0 0 0% 30.09 0.0
02 12:35 N 12 10.00 Fair CLR 0 0 0% 30.09 0.0
02 12:15 N 12 9.00 Fair CLR 0 0 0% 30.1 0.0
02 11:55 N 12 G 18 9.00 Fair CLR 0 0 0% 30.1 0.0
02 11:35 N 16 9.00 Fair CLR 0 0 0% 30.1 0.0
02 11:15 N 13 9.00 Fair CLR 0 0 0% 30.1 0.0
02 10:55 N 10 10.00 Fair CLR 0 0 0% 30.1 0.0
02 10:35 N 12 9.00 Fair CLR 0 0 0% 30.09 0.0
02 10:15 N 12 9.00 Fair CLR 0 0 0% 30.09 0.0
02 09:55 N 10 9.00 Fair CLR 0 0 0% 30.08 0.0
02 09:35 N 6 G 13 9.00 Fair CLR 0 0 0% 30.08 0.0
02 09:15 N 10 10.00 Fair CLR 0 0 0% 30.08 0.0
02 08:55 N 8 9.00 Fair CLR 0 0 0% 30.06 0.0
02 08:35 N 8 9.00 Fair CLR 0 0 0% 30.05 0.0
02 08:15 N 7 9.00 Fair CLR 0 0 0% 30.04 0.0
02 07:55 N 7 10.00 Fair CLR 0 0 0% 30.04 0.0
02 07:35 N 6 9.00 Fair CLR 0 0 0% 30.03 0.0
02 07:15 N 3 10.00 Partly Cloudy FEW005 SCT095 0 0 0% 30.02 0.0
02 06:55 Vrbl 5 7.00 Mostly Cloudy BKN005 BKN095 0 0 0% 30.01 0.0 0.01
02 06:35 N 5 7.00 Overcast OVC003 0 0 0% 30.01 0.0
02 06:15 N 5 7.00 Overcast OVC003 0 0 0% 30 0.0
02 05:55 NW 5 9.00 Overcast OVC003 0 0 0% 30 0.0
02 05:35 NW 3 7.00 Overcast OVC003 0 0 0% 29.99 0.0
02 05:15 Calm 9.00 Overcast OVC003 0 0 0% 29.98 0.0
02 04:55 Calm 9.00 Overcast OVC003 0 0 0% 29.98 0.0
02 04:35 Calm 9.00 Overcast BKN003 OVC060 0 0 0% 29.97 0.0
02 04:15 Calm 10.00 Overcast SCT003 BKN060 OVC070 0 0 0% 29.97 0.0
02 03:55 Calm 9.00 Overcast BKN004 BKN060 OVC070 0 0 0% 29.97 0.0
02 03:35 Calm 10.00 Overcast OVC003 0 0 0% 29.98 0.0
02 03:15 N 3 9.00 Overcast OVC003 0 0 0% 29.98 0.0
02 02:55 N 5 5.00 Overcast BKN004 BKN008 OVC049 0 0 0% 29.98 0.0 0.05
02 02:35 N 3 5.00 Overcast BKN005 OVC049 0 0 0% 29.99 0.0
02 02:15 N 3 10.00 Overcast OVC004 0 0 0% 29.99 0.0
02 01:55 N 5 8.00 Overcast OVC003 0 0 0% 29.98 0.0 0.06
02 01:35 N 7 5.00 Overcast OVC004 0 0 0% 29.99 0.0
02 01:15 NE 3 5.00 Overcast BKN005 OVC035 0 0 0% 30 0.0
02 00:55 N 5 5.00 Overcast OVC033 0 0 0% 30.01 0.0 0.04
02 00:35 N 6 9.00 Overcast FEW005 OVC030 0 0 0% 30.01 0.0
02 00:15 N 7 7.00 Overcast BKN005 OVC032 0 0 0% 30 0.0
01 23:55 N 8 6.00 Overcast BKN004 BKN007 OVC033 0 0 0% 29.99 0.0 0.05
01 23:35 N 7 4.00 Overcast SCT005 BKN016 OVC035 0 0 0% 30.01 0.0
01 23:15 N 7 7.00 Overcast FEW005 BKN016 OVC025 0 0 0% 30 0.0
01 22:55 N 3 10.00 Overcast OVC015 0 0 0% 30 0.0 0.01
01 22:35 Calm 9.00 Overcast OVC015 0 0 0% 30.01 0.0
01 22:15 Calm 9.00 Overcast SCT006 SCT013 OVC017 0 0 0% 30.01 0.0
01 21:55 Calm 10.00 Overcast BKN006 OVC019 0 0 0% 30.01 0.0
01 21:35 Vrbl 6 G 12 10.00 Overcast BKN006 OVC024 0 0 0% 29.98 0.0
01 21:15 N 8 8.00 Overcast OVC023 0 0 0% 29.97 0.0
01 20:55 N 7 7.00 Overcast OVC021 0 0 0% 29.98 0.0 0.02
01 20:35 NE 9 9.00 Overcast FEW008 FEW012 OVC019 0 0 0% 29.97 0.0
01 20:15 Vrbl 7 G 14 5.00 Overcast SCT007 BKN012 OVC017 0 0 0% 29.97 0.0
01 19:55 N 7 6.00 Overcast BKN006 OVC011 0 0 0% 29.96 0.0 0.03
01 19:35 N 8 8.00 Overcast SCT006 BKN009 OVC015 0 0 0% 29.97 0.0
01 19:15 N 8 3.00 Overcast OVC007 0 0 0% 29.95 0.0
01 18:55 NE 3 3.00 Overcast BKN006 BKN015 OVC060 0 0 0% 29.95 0.0 0.08
01 18:35 Vrbl 6 G 12 2.50 Overcast FEW007 BKN028 OVC070 0 0 0% 29.92 0.0
01 18:15 Vrbl 6 5.00 Mostly Cloudy FEW008 SCT028 BKN050 0 0 0% 29.91 0.0
01 17:55 Vrbl 5 2.00 Overcast FEW009 BKN027 OVC049 0 0 0% 29.92 0.0 0.11
01 17:35 Vrbl 5 G 13 3.00 Overcast SCT005 BKN009 OVC040 0 0 0% 29.93 0.0
01 17:15 NE 6 3.00 Overcast BKN005 OVC009 0 0 0% 29.93 0.0
01 16:55 NE 6 2.50 Overcast BKN007 BKN014 OVC032 0 0 0% 29.92 0.0 0.15
01 16:35 NE 5 G 13 2.00 Mostly Cloudy FEW006 SCT011 BKN017 0 0 0% 29.94 0.0
01 16:15 N 8 2.00 Overcast BKN007 BKN011 OVC027 0 0 0% 29.94 0.0
01 15:55 N 8 G 14 3.00 Mostly Cloudy BKN006 BKN011 BKN017 0 0 0% 29.95 0.0 0.1
01 15:35 N 7 3.00 Overcast BKN005 OVC009 0 0 0% 29.95 0.0
01 15:15 NE 7 3.00 Overcast BKN007 OVC011 0 0 0% 29.95 0.0
01 14:55 N 7 4.00 Overcast BKN007 BKN012 OVC018 0 0 0% 29.97 0.0 0.04
01 14:35 NE 7 4.00 Mostly Cloudy SCT007 BKN018 0 0 0% 29.96 0.0
01 14:15 N 9 4.00 Partly Cloudy FEW007 SCT020 SCT030 0 0 0% 29.96 0.0
01 13:55 N 8 3.00 Mostly Cloudy FEW007 FEW025 BKN045 0 0 0% 29.99 0.0 0.1
01 13:35 N 8 2.50 Overcast SCT020 OVC043 0 0 0% 29.99 0.0
01 12:55 N 7 G 13 3.00 Overcast SCT022 OVC034 0 0 0% 29.99 0.0 0.02
01 12:35 NE 7 G 14 8.00 Overcast OVC022 0 0 0% 29.99 0.0
01 12:15 NE 8 7.00 Mostly Cloudy BKN021 BKN033 0 0 0% 30 0.0
01 11:55 NE 5 4.00 Mostly Cloudy BKN034 BKN044 0 0 0% 30 0.0 0.06
01 11:35 NE 8 4.00 Mostly Cloudy FEW026 SCT032 BKN045 0 0 0% 30 0.0
01 11:15 Vrbl 6 2.00 Mostly Cloudy FEW026 BKN031 BKN055 0 0 0% 30.02 0.0
01 10:55 N 5 4.00 Overcast FEW007 OVC031 0 0 0% 30.02 0.0 0.02
01 10:35 N 6 5.00 Overcast SCT007 SCT010 OVC029 0 0 0% 30.01 0.0
01 10:15 N 7 8.00 Overcast FEW009 OVC026 0 0 0% 30 0.0
01 09:55 N 7 4.00 Overcast FEW005 FEW009 OVC023 0 0 0% 29.99 0.0 0.03
01 09:35 N 9 3.00 Overcast FEW005 SCT010 OVC019 0 0 0% 29.99 0.0
01 09:15 NE 6 4.00 Overcast OVC020 0 0 0% 29.99 0.0
01 08:55 NE 5 7.00 Mostly Cloudy FEW007 BKN021 BKN080 0 0 0% 29.98 0.0
01 08:35 N 8 6.00 Overcast SCT006 SCT012 OVC020 0 0 0% 29.98 0.0
01 08:15 NE 5 9.00 Overcast FEW007 OVC019 0 0 0% 29.98 0.0
01 07:55 N 6 9.00 Overcast OVC019 0 0 0% 29.97 0.0
01 07:35 N 3 9.00 Overcast SCT007 OVC020 0 0 0% 29.97 0.0
01 07:15 N 7 9.00 Overcast BKN006 BKN010 OVC018 0 0 0% 29.96 0.0
01 06:55 N 6 9.00 Overcast BKN005 OVC017 0 0 0% 29.94 0.0
01 06:35 NE 7 9.00 Overcast SCT006 OVC017 0 0 0% 29.94 0.0
01 06:15 Vrbl 5 10.00 Overcast BKN006 OVC017 0 0 0% 29.93 0.0
01 05:55 N 6 9.00 Overcast SCT005 OVC016 0 0 0% 29.93 0.0 0.01
01 05:35 NE 6 8.00 Overcast OVC016 0 0 0% 29.93 0.0
01 05:15 Calm 7.00 Overcast OVC016 0 0 0% 29.94 0.0
01 04:55 Calm 10.00 Overcast FEW007 FEW011 OVC016 0 0 0% 29.95 0.0
01 04:35 N 7 10.00 Overcast SCT008 SCT012 OVC020 0 0 0% 29.95 0.0
01 04:15 Vrbl 5 10.00 Overcast FEW005 SCT008 OVC019 0 0 0% 29.92 0.0
01 03:55 N 7 8.00 Overcast SCT005 BKN008 OVC018 0 0 0% 29.91 0.0
01 03:35 N 5 9.00 Overcast FEW005 SCT012 OVC019 0 0 0% 29.92 0.0
01 03:15 Calm 7.00 Overcast BKN005 OVC018 0 0 0% 29.92 0.0
01 02:55 N 5 7.00 Overcast FEW006 OVC018 0 0 0% 29.92 0.0 0.02
01 02:35 Calm 9.00 Overcast OVC018 0 0 0% 29.92 0.0
Date Time (cdt) Wind (mph) Vis. (mi.) Weather Sky Cond. Air Dwpt Max. Min. Relative Humidity Wind Chill (°F) Heat Index (°F) altimeter (in) sea level (mb) 1 hr 3 hr 6 hr
6 hour
Temperature (ºF) Pressure Precipitation (in)